Погода в Верхней Орельке

Украина / Харьковская область     49°17′52″N   36°03′31″E
темп.,
°C
ветер,
м/с
пор.,
м/с
влажн.,
%
обл.,
%
осадки,
мм/ч
давл.,
гПа
погр.,
м
23 октября, сб
сб2300:00+11з376414 0.0 1014120
03:00+10юз116794 0.0 101410
06:00+9юз3670100 0.0 101493
09:00+11зюз3659100 0.0 1015189
12:00+15з5944100 0.0 1015766
15:00+16з693799 0.0 10151636
18:00+13зсз5104015 0.0 1016429
21:00+8сз385611 0.0 1019158
24 октября, вс
вс2400:00+6сз36630 0.0 102098
03:00+4зсз336637 0.0 102151
06:00+4зсз3468100 0.0 102164
09:00+5зсз3561100 0.0 1022216
12:00+10зсз564781 0.0 10221645
15:00+10зсз673793 0.0 10202052
18:00+7зсз595497 0.0 1022446
21:00+5ссз71062100 0.1 10241398
25 октября, пн
пн2500:00+4сз6106683 0.0 1025810
03:00+2ссз511765 0.0 1026478
06:000ссз511815 0.0 1028380
09:00+1ссз59735 0.0 1030482
12:00+5с57410 0.0 10311112
15:00+7с56320 0.0 10311330
18:00+3с35440 0.0 103275
21:00+2с33500 0.0 103335
26 октября, вт
вт2600:00+1св11540 0.0 103410
03:000всв11570 0.0 103510
06:00−1ююв11590 0.0 103510
09:00+2ююв12485 0.0 1035117
12:00+7ю33315 0.0 1034669
15:00+9ююз33245 0.0 1032867
18:00+5ю22310 0.0 103113
21:00+3ю33353 0.0 103125
27 октября, ср
ср2700:00+2ю33380 0.0 103136
03:00+1ю34410 0.0 103055
06:000ю344530 0.0 102951
09:00+2ююз243856 0.0 1029154
12:00+8ю453071 0.0 1027549
15:00+10ююз3425100 0.0 1025862
18:00+7ююз2234100 0.0 102417
21:00+6зюз3337100 0.0 102437